Regional Weather Roundup
Issued by NWS

Home | Current Version | Previous Version | Text Only | Print | Product List | Glossary Off
Versions: 1 2 3 4 5 6 7 8 9 10 11 12 13 14 15 16 17 18 19 20 21 22 23 24 25 26 27 28 29 30 31 32 33 34 35 36 37 38 39 40 41 42 43 44 45 46 47 48 49 50

000
ASUS43 KFSD 270502
RWRSD

WEATHER ROUNDUP FOR SOUTH DAKOTA
NATIONAL WEATHER SERVICE SIOUX FALLS SD
1100 PM CST FRI DEC 26 2014

NOTE: "FAIR" INDICATES FEW OR NO CLOUDS BELOW 12,000 FEET WITH NO
SIGNIFICANT WEATHER AND/OR OBSTRUCTIONS TO VISIBILITY.


SDZ001>005-009-010-012>017-270600-
NORTHWEST AND NORTH CENTRAL SOUTH DAKOTA

CITY           SKY/WX    TMP DP  RH WIND       PRES   REMARKS
BUFFALO          N/A     10   7  87 S7        30.03F WCI  -1
FAITH            N/A     11   6  81 W10       30.14R WCI  -3
MOBRIDGE       PTCLDY     3   1  91 N5        30.15F WCI  -6
$$

SDZ012>016-024>037-041>051-057-063-072>074-270600-
SOUTHWEST AND SOUTH CENTRAL SOUTH DAKOTA

CITY           SKY/WX    TMP DP  RH WIND       PRES   REMARKS
RAPID CTY ARPT PTCLDY     7   6  96 CALM      30.11F
PIERRE         CLOUDY    12   8  84 NW3       30.19R
CUSTER         CLOUDY     6   3  87 SW5       29.97R WCI  -3
ELLSWORTH AFB  PTCLDY    13  11  90 NW5       30.10F WCI   5
PHILIP         MOCLDY     4   0  83 W3        30.18R
PINE RIDGE     CLOUDY    17  11  77 CALM      30.13S
WINNER         LGT SNOW  18  13  80 NW10      30.17R WCI   6
$$

SDZ004>011-016>023-039-040-270600-
NORTHEAST SOUTH DAKOTA

CITY           SKY/WX    TMP DP  RH WIND       PRES   REMARKS
ABERDEEN       CLOUDY    12   7  80 N10       30.21R WCI  -1
WATERTOWN      CLOUDY    18  15  88 N15       30.10F WCI   4
SISSETON         N/A     13   9  84 N18       30.17S WCI  -4
$$

SDZ017-020-022-023-036>040-048>070-270600-
SOUTHEAST SOUTH DAKOTA

CITY           SKY/WX    TMP DP  RH WIND       PRES   REMARKS
SIOUX FALLS    LGT SNOW  22  19  89 N10       30.08S VSB 1   WCI  11
HURON          CLOUDY    17  14  88 N16       30.17S WCI   2
MITCHELL       LGT SNOW  20  18  92 N15       30.16R VSB 1   WCI   6
YANKTON        MOCLDY    21  19  93 NW14      30.13R WCI   8
$$

ABBREVIATIONS USED IN REMARKS
   TC - TEMPERATURE IN CELSIUS
  WCI - WIND CHILL INDEX
   HX - HEAT INDEX
  VSB - VISIBILITY




USA.gov is the U.S. government's official web portal to all federal, state and local government web resources and services.